Regional Weather Roundup
Issued by NWS

Home | Current Version | Previous Version | Graphics & Text | Print | Product List | Glossary On
Versions: 1 2 3 4 5 6 7 8 9 10 11 12 13 14 15 16 17 18 19 20 21 22 23 24 25 26 27 28 29 30 31 32 33 34 35 36 37 38 39 40 41 42 43 44 45 46 47 48 49 50
000
ASUS44 KMEG 220900
RWRTN
TENNESSEE HOURLY STATE WEATHER ROUNDUP
NATIONAL WEATHER SERVICE MEMPHIS TN
400 AM CDT WED OCT 22 2014

TNZ002-004-019-021-049-052-054-088>092-221000-
WEST TENNESSEE

CITY           SKY/WX    TMP DP  RH WIND       PRES   REMARKS
MEMPHIS INTL   CLEAR     56  46  69 E8        30.14S
JACKSON        CLEAR     46  41  82 CALM      30.16R
DYERSBURG      CLEAR     48  36  61 CALM      30.19R
UNION CITY     CLEAR     45  43  93 CALM      30.17R
PARIS          CLEAR     43  39  87 NE6       30.17S
LEXINGTON      CLEAR     45  43  93 NE3       30.14S
SAVANNAH       CLEAR     43  43 100 CALM      30.15R
$$

TNZ008-025-027-028-033-062-065-066-221000-
NORTH MIDDLE TENNESSEE

CITY           SKY/WX    TMP DP  RH WIND       PRES   REMARKS
NASHVILLE      CLEAR     45  41  86 N5        30.17R
CLARKSVILLE    CLEAR     44  40  85 N5        30.18R
CROSSVILLE     CLEAR     43  38  82 N3        30.13R
$$

TNZ061-075-076-078-094-096-097-221000-
SOUTH MIDDLE TENNESSEE

CITY           SKY/WX    TMP DP  RH WIND       PRES   REMARKS
SHELBYVILLE    CLEAR     39  39 100 CALM      30.16R
$$

TNZ017-018-042-046-047-221000-
NORTHEAST TENNESSEE

CITY           SKY/WX    TMP DP  RH WIND       PRES   REMARKS
TRI CITIES     CLOUDY    47  39  74 N6        30.10R
ELIZABETHTON   CLOUDY    45  37  76 CALM      30.09R
$$

TNZ012-013-036-069-073-074-221000-
CENTRAL EAST TENNESSEE

CITY           SKY/WX    TMP DP  RH WIND       PRES   REMARKS
KNOXVILLE      CLEAR     45  40  82 N6        30.11R
OAK RIDGE      CLEAR     42  39  89 CALM      30.14R
GATLINBURG     SUNNY     37  36  93 CALM      30.12R
$$

TNZ083-085-099-221000-
SOUTHEAST TENNESSEE

CITY           SKY/WX    TMP DP  RH WIND       PRES   REMARKS
CHATTANOOGA    CLEAR     46  40  79 NW6       30.11R
$$

SKY/WX REPORTED AS FAIR MEANS FEW OR NO CLOUDS BELOW
12 THOUSAND FEET.




USA.gov is the U.S. government's official web portal to all federal, state and local government web resources and services.